MET622 KSEA-KMSP

Flight info

Callsign MET622
Flight time 2h 51m
Altitude 35000
Route MONTN2 SEA ZADON ZELAK ZIRAN ZAXBY BLOWS ZERZO SWTHN/N0443F370 Q156 UFFDA TORGY4
Aircraft A321/M-SDE3FGHIRWY/LB1

Departure

Time 2026-05-07 01:04
Airport Seattle–Tacoma International Airport (KSEA)

Arrival

Time 2026-05-07 03:55
Airport Minneapolis–Saint Paul International Airport / Wold–Chamberlain Field (KMSP)
Time Latitude Longitude Altitude Speed Heading
2026-05-07 00:30 47.44132 -122.30443 382 ft 0 kts 90°
2026-05-07 00:50 47.44132 -122.30447 381 ft 2 kts 90°
2026-05-07 00:50 47.44132 -122.30469 381 ft 2 kts 90°
2026-05-07 00:50 47.44132 -122.30482 381 ft 2 kts 89°
2026-05-07 00:50 47.44128 -122.30504 381 ft 2 kts 64°
2026-05-07 00:51 47.44121 -122.30522 380 ft 2 kts 48°
2026-05-07 00:51 47.44109 -122.30537 380 ft 2 kts 29°
2026-05-07 00:51 47.44095 -122.30544 379 ft 2 kts 11°
2026-05-07 00:51 47.44089 -122.30546 379 ft 1 kts
2026-05-07 00:52 47.44087 -122.30546 379 ft 1 kts
2026-05-07 00:52 47.44081 -122.30546 379 ft 0 kts 359°
2026-05-07 00:56 47.44086 -122.30546 379 ft 1 kts 359°
2026-05-07 00:56 47.44090 -122.30546 379 ft 1 kts 359°
2026-05-07 00:56 47.44125 -122.30545 380 ft 7 kts
2026-05-07 00:56 47.44189 -122.30544 383 ft 10 kts
2026-05-07 00:57 47.44253 -122.30542 385 ft 8 kts
2026-05-07 00:57 47.44303 -122.30540 387 ft 6 kts
2026-05-07 00:57 47.44343 -122.30563 388 ft 6 kts 299°
2026-05-07 00:57 47.44362 -122.30622 388 ft 8 kts 328°
2026-05-07 00:58 47.44438 -122.30633 390 ft 11 kts
2026-05-07 00:58 47.44511 -122.30632 394 ft 9 kts
2026-05-07 00:58 47.44593 -122.30630 397 ft 13 kts
2026-05-07 00:58 47.44682 -122.30629 400 ft 11 kts
2026-05-07 00:59 47.44817 -122.30627 405 ft 11 kts
2026-05-07 00:59 47.44893 -122.30627 408 ft 11 kts
2026-05-07 00:59 47.45005 -122.30626 413 ft 18 kts
2026-05-07 01:00 47.45126 -122.30626 418 ft 15 kts 360°
2026-05-07 01:00 47.45227 -122.30626 423 ft 13 kts
2026-05-07 01:00 47.45334 -122.30622 427 ft 15 kts
2026-05-07 01:00 47.45429 -122.30621 431 ft 12 kts
2026-05-07 01:01 47.45547 -122.30621 434 ft 19 kts
2026-05-07 01:01 47.45693 -122.30619 438 ft 21 kts
2026-05-07 01:01 47.45840 -122.30617 438 ft 21 kts 360°
2026-05-07 01:01 47.45985 -122.30620 437 ft 21 kts
2026-05-07 01:02 47.46131 -122.30615 434 ft 20 kts
2026-05-07 01:02 47.46267 -122.30614 431 ft 19 kts
2026-05-07 01:02 47.46358 -122.30620 428 ft 9 kts 334°
2026-05-07 01:02 47.46374 -122.30720 422 ft 9 kts 247°
2026-05-07 01:03 47.46332 -122.30776 421 ft 8 kts 184°
2026-05-07 01:03 47.46291 -122.30777 423 ft 7 kts 181°
2026-05-07 01:03 47.46115 -122.30780 427 ft 55 kts 181°
2026-05-07 01:03 47.45492 -122.30785 429 ft 122 kts 180°
2026-05-07 01:04 47.44449 -122.30776 538 ft 163 kts 180°
2026-05-07 01:04 47.43321 -122.30734 1119 ft 167 kts 181°
2026-05-07 01:04 47.42176 -122.30718 1793 ft 167 kts 184°
2026-05-07 01:04 47.41028 -122.30749 2405 ft 167 kts 185°
2026-05-07 01:05 47.39827 -122.30801 2665 ft 178 kts 185°
2026-05-07 01:05 47.38537 -122.30864 2929 ft 191 kts 185°
2026-05-07 01:05 47.37160 -122.30921 3203 ft 205 kts 184°
2026-05-07 01:05 47.35695 -122.30971 3480 ft 219 kts 184°
2026-05-07 01:06 47.34105 -122.30795 3687 ft 242 kts 162°
2026-05-07 01:06 47.32708 -122.29283 3996 ft 263 kts 126°
2026-05-07 01:06 47.32145 -122.26678 4479 ft 274 kts 90°
2026-05-07 01:06 47.32338 -122.23889 5149 ft 277 kts 83°
2026-05-07 01:07 47.32501 -122.21046 5817 ft 282 kts 85°
2026-05-07 01:07 47.32628 -122.18133 6476 ft 287 kts 86°
2026-05-07 01:07 47.32745 -122.15175 7145 ft 292 kts 86°
2026-05-07 01:07 47.32858 -122.12153 7833 ft 297 kts 85°
2026-05-07 01:08 47.33234 -122.09149 8453 ft 298 kts 62°
2026-05-07 01:08 47.34440 -122.06744 9125 ft 293 kts 40°
2026-05-07 01:08 47.35960 -122.04717 9803 ft 295 kts 36°
2026-05-07 01:08 47.37503 -122.02689 10388 ft 302 kts 37°
2026-05-07 01:09 47.39082 -122.00496 10709 ft 319 kts 39°
2026-05-07 01:09 47.40670 -121.98166 11115 ft 331 kts 40°
2026-05-07 01:09 47.42291 -121.95697 11704 ft 336 kts 41°
2026-05-07 01:09 47.43900 -121.93199 12316 ft 339 kts 41°
2026-05-07 01:10 47.45534 -121.90641 12905 ft 343 kts 41°
2026-05-07 01:10 47.47205 -121.88015 13481 ft 347 kts 41°
2026-05-07 01:10 47.48856 -121.85419 13983 ft 351 kts 41°
2026-05-07 01:10 47.50530 -121.82783 14574 ft 354 kts 40°
2026-05-07 01:11 47.52233 -121.80096 15136 ft 358 kts 40°
2026-05-07 01:11 47.53927 -121.77426 15549 ft 364 kts 40°
2026-05-07 01:11 47.55486 -121.74371 16069 ft 378 kts 57°
2026-05-07 01:11 47.56253 -121.70634 16573 ft 391 kts 81°
2026-05-07 01:12 47.56280 -121.66585 17114 ft 396 kts 89°
2026-05-07 01:12 47.56163 -121.62537 17626 ft 400 kts 89°
2026-05-07 01:12 47.56050 -121.58425 18107 ft 403 kts 89°
2026-05-07 01:12 47.55964 -121.54241 18636 ft 405 kts 88°
2026-05-07 01:13 47.55900 -121.50110 19145 ft 407 kts 88°
2026-05-07 01:13 47.55841 -121.45879 19617 ft 409 kts 88°
2026-05-07 01:13 47.55781 -121.41684 20079 ft 412 kts 87°
2026-05-07 01:13 47.55721 -121.37473 20536 ft 415 kts 87°
2026-05-07 01:14 47.55658 -121.33206 20962 ft 418 kts 88°
2026-05-07 01:14 47.55590 -121.28857 21409 ft 420 kts 88°
2026-05-07 01:14 47.55521 -121.24596 21832 ft 422 kts 88°
2026-05-07 01:14 47.55448 -121.20203 22246 ft 425 kts 88°
2026-05-07 01:15 47.55376 -121.15888 22648 ft 427 kts 88°
2026-05-07 01:15 47.55300 -121.11463 23055 ft 429 kts 88°
2026-05-07 01:15 47.55223 -121.07072 23462 ft 432 kts 88°
2026-05-07 01:15 47.55144 -121.02654 23869 ft 434 kts 88°
2026-05-07 01:16 47.55061 -120.98148 24271 ft 436 kts 88°
2026-05-07 01:16 47.54978 -120.93717 24653 ft 438 kts 88°
2026-05-07 01:16 47.54892 -120.89185 25052 ft 440 kts 88°
2026-05-07 01:16 47.54806 -120.84692 25408 ft 443 kts 87°
2026-05-07 01:17 47.54715 -120.80167 25762 ft 445 kts 88°
2026-05-07 01:17 47.54621 -120.75545 26122 ft 448 kts 87°
2026-05-07 01:17 47.54525 -120.70966 26470 ft 450 kts 87°
2026-05-07 01:17 47.54427 -120.66311 26805 ft 452 kts 87°
2026-05-07 01:18 47.54327 -120.61695 27163 ft 454 kts 87°
2026-05-07 01:18 47.54227 -120.57050 27469 ft 456 kts 87°
2026-05-07 01:18 47.54122 -120.52379 27787 ft 459 kts 87°
2026-05-07 01:18 47.54014 -120.47631 28096 ft 461 kts 87°
2026-05-07 01:19 47.53904 -120.42875 28384 ft 464 kts 87°
2026-05-07 01:19 47.53811 -120.38140 28632 ft 467 kts 86°
2026-05-07 01:19 47.53739 -120.33342 28947 ft 468 kts 86°
2026-05-07 01:19 47.53674 -120.28498 29205 ft 471 kts 87°
2026-05-07 01:20 47.53605 -120.23704 29498 ft 472 kts 87°
2026-05-07 01:20 47.53532 -120.18900 29787 ft 473 kts 86°
2026-05-07 01:20 47.53457 -120.14013 30043 ft 475 kts 87°
2026-05-07 01:20 47.53379 -120.09167 30262 ft 478 kts 87°
2026-05-07 01:21 47.53296 -120.04227 30523 ft 480 kts 86°
2026-05-07 01:21 47.53210 -119.99335 30727 ft 482 kts 86°
2026-05-07 01:21 47.53120 -119.94346 30969 ft 484 kts 86°
2026-05-07 01:21 47.53031 -119.89418 31198 ft 486 kts 86°
2026-05-07 01:22 47.52937 -119.84399 31429 ft 487 kts 86°
2026-05-07 01:22 47.52844 -119.79448 31729 ft 487 kts 86°
2026-05-07 01:22 47.52744 -119.74431 32046 ft 486 kts 86°
2026-05-07 01:22 47.52643 -119.69495 32351 ft 485 kts 86°
2026-05-07 01:23 47.52541 -119.64490 32625 ft 485 kts 86°
2026-05-07 01:23 47.52438 -119.59560 32906 ft 485 kts 86°
2026-05-07 01:23 47.52330 -119.54560 33196 ft 485 kts 86°
2026-05-07 01:23 47.52223 -119.49636 33446 ft 485 kts 85°
2026-05-07 01:24 47.52113 -119.44630 33652 ft 486 kts 85°
2026-05-07 01:24 47.52002 -119.39686 33856 ft 487 kts 85°
2026-05-07 01:24 47.51886 -119.34644 34093 ft 488 kts 86°
2026-05-07 01:24 47.51771 -119.29676 34291 ft 489 kts 86°
2026-05-07 01:25 47.51653 -119.24633 34529 ft 489 kts 86°
2026-05-07 01:25 47.51532 -119.19659 34755 ft 490 kts 86°
2026-05-07 01:25 47.51409 -119.14675 34860 ft 491 kts 86°
2026-05-07 01:26 47.51150 -119.04570 34859 ft 491 kts 86°
2026-05-07 01:26 47.50885 -118.94540 34863 ft 490 kts 86°
2026-05-07 01:27 47.50613 -118.84515 34867 ft 490 kts 86°
2026-05-07 01:27 47.50333 -118.74500 34872 ft 489 kts 86°
2026-05-07 01:28 47.50044 -118.64484 34873 ft 490 kts 86°
2026-05-07 01:28 47.49746 -118.54462 34875 ft 490 kts 86°
2026-05-07 01:29 47.49440 -118.44441 34884 ft 490 kts 86°
2026-05-07 01:29 47.49123 -118.34513 34876 ft 488 kts 87°
2026-05-07 01:30 47.48800 -118.24439 34883 ft 490 kts 87°
2026-05-07 01:30 47.48466 -118.14501 34876 ft 489 kts 86°
2026-05-07 01:31 47.48126 -118.04498 34880 ft 489 kts 86°
2026-05-07 01:31 47.47778 -117.94500 34889 ft 489 kts 87°
2026-05-07 01:32 47.47415 -117.84481 34904 ft 489 kts 87°
2026-05-07 01:32 47.47046 -117.74477 34912 ft 489 kts 87°
2026-05-07 01:33 47.46673 -117.64551 34922 ft 488 kts 86°
2026-05-07 01:33 47.46142 -117.54550 34919 ft 491 kts 89°
2026-05-07 01:34 47.45488 -117.44544 34918 ft 491 kts 89°
2026-05-07 01:34 47.44825 -117.34547 34926 ft 490 kts 90°
2026-05-07 01:35 47.44161 -117.24550 34926 ft 492 kts 90°
2026-05-07 01:35 47.43487 -117.14561 34915 ft 490 kts 90°
2026-05-07 01:36 47.42809 -117.04569 34906 ft 491 kts 90°
2026-05-07 01:36 47.42124 -116.94623 34902 ft 491 kts 90°
2026-05-07 01:37 47.41425 -116.84645 34909 ft 489 kts 90°
2026-05-07 01:37 47.40721 -116.74677 34929 ft 490 kts 90°
2026-05-07 01:38 47.40008 -116.64736 34935 ft 489 kts 90°
2026-05-07 01:38 47.39291 -116.54791 34933 ft 490 kts 90°
2026-05-07 01:39 47.38557 -116.44813 34942 ft 491 kts 90°
2026-05-07 01:39 47.37815 -116.34852 34939 ft 490 kts 91°
2026-05-07 01:40 47.37075 -116.24965 34949 ft 490 kts 91°
2026-05-07 01:40 47.36319 -116.15004 34939 ft 491 kts 91°
2026-05-07 01:41 47.35551 -116.05045 34946 ft 490 kts 91°
2026-05-07 01:41 47.34774 -115.95092 34941 ft 489 kts 91°
2026-05-07 01:42 47.33993 -115.85164 34957 ft 489 kts 91°
2026-05-07 01:42 47.33210 -115.75323 34974 ft 488 kts 91°
2026-05-07 01:43 47.32414 -115.65393 34985 ft 489 kts 91°
2026-05-07 01:43 47.31604 -115.55474 34995 ft 487 kts 91°
2026-05-07 01:44 47.30793 -115.45589 34998 ft 487 kts 91°
2026-05-07 01:44 47.29978 -115.35760 35009 ft 488 kts 91°
2026-05-07 01:45 47.29146 -115.25867 35003 ft 488 kts 92°
2026-05-07 01:45 47.28307 -115.15958 35014 ft 489 kts 92°
2026-05-07 01:46 47.27461 -115.06104 35002 ft 490 kts 92°
2026-05-07 01:46 47.26690 -114.96183 34995 ft 487 kts 90°
2026-05-07 01:47 47.26109 -114.86331 35003 ft 486 kts 90°
2026-05-07 01:47 47.25816 -114.81343 34881 ft 486 kts 89°
2026-05-07 01:47 47.25523 -114.76429 34955 ft 487 kts 90°
2026-05-07 01:48 47.24919 -114.66513 35006 ft 486 kts 89°
2026-05-07 01:48 47.24311 -114.56689 35009 ft 487 kts 89°
2026-05-07 01:49 47.23691 -114.46814 34997 ft 486 kts 89°
2026-05-07 01:49 47.23063 -114.36953 34996 ft 486 kts 89°
2026-05-07 01:50 47.22427 -114.27078 34983 ft 487 kts 90°
2026-05-07 01:50 47.21780 -114.17253 34977 ft 486 kts 90°
2026-05-07 01:51 47.21127 -114.07372 34982 ft 487 kts 90°
2026-05-07 01:51 47.20461 -113.97464 34985 ft 488 kts 90°
2026-05-07 01:52 47.19789 -113.87605 35000 ft 489 kts 90°
2026-05-07 01:52 47.19103 -113.77696 35022 ft 488 kts 90°
2026-05-07 01:53 47.18409 -113.67757 35031 ft 489 kts 90°
2026-05-07 01:53 47.17711 -113.57913 35031 ft 488 kts 90°
2026-05-07 01:54 47.17000 -113.47997 35023 ft 488 kts 90°
2026-05-07 01:54 47.16286 -113.38165 35018 ft 488 kts 90°
2026-05-07 01:55 47.15559 -113.28256 35017 ft 488 kts 91°
2026-05-07 01:55 47.14823 -113.18356 35020 ft 488 kts 91°
2026-05-07 01:56 47.14081 -113.08485 35018 ft 488 kts 91°
2026-05-07 01:56 47.13335 -112.98669 35012 ft 489 kts 91°
2026-05-07 01:57 47.12574 -112.88788 35003 ft 489 kts 91°
2026-05-07 01:57 47.11805 -112.78886 35008 ft 490 kts 90°
2026-05-07 01:58 47.11027 -112.69001 35001 ft 488 kts 91°
2026-05-07 01:58 47.10244 -112.59138 34994 ft 488 kts 91°
2026-05-07 01:59 47.09453 -112.49345 34991 ft 488 kts 91°
2026-05-07 01:59 47.08650 -112.39512 34984 ft 485 kts 90°
2026-05-07 02:00 47.07846 -112.29701 34977 ft 486 kts 91°
2026-05-07 02:00 47.07033 -112.19888 34969 ft 487 kts 91°
2026-05-07 02:01 47.06208 -112.10081 34968 ft 486 kts 91°
2026-05-07 02:01 47.05378 -112.00297 34949 ft 485 kts 91°
2026-05-07 02:02 47.04538 -111.90514 34945 ft 484 kts 91°
2026-05-07 02:02 47.03702 -111.80836 34957 ft 484 kts 91°
2026-05-07 02:03 47.02849 -111.71091 34978 ft 483 kts 91°
2026-05-07 02:03 47.01991 -111.61382 34977 ft 483 kts 91°
2026-05-07 02:04 47.01127 -111.51669 34978 ft 482 kts 91°
2026-05-07 02:04 47.00253 -111.41961 34976 ft 482 kts 91°
2026-05-07 02:05 46.99369 -111.32232 34983 ft 483 kts 92°
2026-05-07 02:05 46.98479 -111.22534 34985 ft 483 kts 92°
2026-05-07 02:06 46.97581 -111.12880 34996 ft 482 kts 92°
2026-05-07 02:06 46.96676 -111.03191 34997 ft 482 kts 92°
2026-05-07 02:07 46.95763 -110.93528 35008 ft 482 kts 92°
2026-05-07 02:07 46.94370 -110.78956 35010 ft 483 kts 92°
2026-05-07 02:08 46.93434 -110.69250 35008 ft 483 kts 92°
2026-05-07 02:08 46.92487 -110.59551 35011 ft 483 kts 92°
2026-05-07 02:09 46.91539 -110.49926 35005 ft 482 kts 92°
2026-05-07 02:09 46.90579 -110.40252 34993 ft 482 kts 92°
2026-05-07 02:10 46.89610 -110.30576 34979 ft 483 kts 92°
2026-05-07 02:10 46.88635 -110.20908 34973 ft 483 kts 93°
2026-05-07 02:11 46.87645 -110.11226 34972 ft 483 kts 93°
2026-05-07 02:11 46.86621 -110.01547 34970 ft 485 kts 94°
2026-05-07 02:12 46.85545 -109.91851 34950 ft 485 kts 93°
2026-05-07 02:12 46.84466 -109.82169 34939 ft 485 kts 93°
2026-05-07 02:13 46.83384 -109.72498 34934 ft 484 kts 93°
2026-05-07 02:13 46.82294 -109.62833 34928 ft 484 kts 93°
2026-05-07 02:14 46.81198 -109.53198 34936 ft 483 kts 93°
2026-05-07 02:14 46.80098 -109.43573 34945 ft 482 kts 93°
2026-05-07 02:15 46.78994 -109.34009 34951 ft 481 kts 94°
2026-05-07 02:15 46.77877 -109.24419 34961 ft 480 kts 94°
2026-05-07 02:16 46.76758 -109.14844 34949 ft 480 kts 94°
2026-05-07 02:16 46.75630 -109.05299 34935 ft 479 kts 94°
2026-05-07 02:17 46.74496 -108.95753 34928 ft 480 kts 94°
2026-05-07 02:17 46.73354 -108.86224 34924 ft 479 kts 94°
2026-05-07 02:18 46.72207 -108.76717 34920 ft 479 kts 94°
2026-05-07 02:18 46.71051 -108.67218 34914 ft 479 kts 94°
2026-05-07 02:19 46.69891 -108.57735 34913 ft 477 kts 94°
2026-05-07 02:19 46.68723 -108.48262 34910 ft 477 kts 94°
2026-05-07 02:20 46.67549 -108.38803 34902 ft 477 kts 94°
2026-05-07 02:20 46.66374 -108.29412 34895 ft 476 kts 94°
2026-05-07 02:21 46.65184 -108.19964 34890 ft 476 kts 94°
2026-05-07 02:21 46.63986 -108.10513 34890 ft 477 kts 94°
2026-05-07 02:22 46.62782 -108.01082 34886 ft 476 kts 94°
2026-05-07 02:22 46.61568 -107.91645 34884 ft 476 kts 94°
2026-05-07 02:23 46.60347 -107.82230 34879 ft 475 kts 94°
2026-05-07 02:23 46.59123 -107.72836 34879 ft 475 kts 94°
2026-05-07 02:24 46.57892 -107.63439 34878 ft 476 kts 94°
2026-05-07 02:24 46.56649 -107.54034 34877 ft 476 kts 94°
2026-05-07 02:25 46.55399 -107.44634 34877 ft 475 kts 94°
2026-05-07 02:25 46.54140 -107.35235 34880 ft 476 kts 94°
2026-05-07 02:26 46.52873 -107.25816 34888 ft 477 kts 94°
2026-05-07 02:26 46.51597 -107.16407 34891 ft 477 kts 94°
2026-05-07 02:27 46.50312 -107.07004 34895 ft 477 kts 94°
2026-05-07 02:27 46.49020 -106.97605 34895 ft 476 kts 94°
2026-05-07 02:28 46.47722 -106.88218 34900 ft 476 kts 94°
2026-05-07 02:28 46.46418 -106.78839 34895 ft 476 kts 94°
2026-05-07 02:29 46.45105 -106.69456 34899 ft 477 kts 94°
2026-05-07 02:29 46.43782 -106.60071 34900 ft 477 kts 94°
2026-05-07 02:30 46.42452 -106.50688 34897 ft 478 kts 94°
2026-05-07 02:30 46.41112 -106.41311 34894 ft 476 kts 94°
2026-05-07 02:31 46.39769 -106.31956 34891 ft 476 kts 94°
2026-05-07 02:31 46.38418 -106.22603 34890 ft 476 kts 94°
2026-05-07 02:32 46.37059 -106.13254 34891 ft 476 kts 94°
2026-05-07 02:32 46.35695 -106.03915 34900 ft 476 kts 94°
2026-05-07 02:33 46.34319 -105.94570 34901 ft 476 kts 94°
2026-05-07 02:33 46.32938 -105.85237 34903 ft 476 kts 94°
2026-05-07 02:34 46.31559 -105.75974 34906 ft 476 kts 94°
2026-05-07 02:34 46.30163 -105.66661 34900 ft 476 kts 94°
2026-05-07 02:35 46.28756 -105.57300 34980 ft 482 kts 94°
2026-05-07 02:35 46.28037 -105.52535 35117 ft 484 kts 94°
2026-05-07 02:35 46.27323 -105.47838 35328 ft 484 kts 94°
2026-05-07 02:36 46.26597 -105.43078 35568 ft 483 kts 94°
2026-05-07 02:36 46.25882 -105.38395 35766 ft 483 kts 94°
2026-05-07 02:36 46.25151 -105.33630 35966 ft 483 kts 95°
2026-05-07 02:36 46.24431 -105.28949 36141 ft 483 kts 95°
2026-05-07 02:37 46.23698 -105.24203 36362 ft 482 kts 94°
2026-05-07 02:37 46.22970 -105.19537 36606 ft 482 kts 95°
2026-05-07 02:37 46.22188 -105.14807 36802 ft 483 kts 96°
2026-05-07 02:37 46.21398 -105.10150 36913 ft 483 kts 96°
2026-05-07 02:38 46.19801 -105.00777 36921 ft 483 kts 96°
2026-05-07 02:38 46.18203 -104.91408 36905 ft 483 kts 96°
2026-05-07 02:39 46.16600 -104.82031 36908 ft 484 kts 95°
2026-05-07 02:39 46.14991 -104.72652 36910 ft 484 kts 96°
2026-05-07 02:40 46.13374 -104.63279 36894 ft 484 kts 96°
2026-05-07 02:40 46.11750 -104.53920 36908 ft 484 kts 95°
2026-05-07 02:41 46.10117 -104.44564 36882 ft 484 kts 95°
2026-05-07 02:41 46.08477 -104.35207 36888 ft 484 kts 96°
2026-05-07 02:42 46.06825 -104.25830 36887 ft 485 kts 96°
2026-05-07 02:42 46.05164 -104.16458 36899 ft 485 kts 96°
2026-05-07 02:43 46.03497 -104.07098 36894 ft 486 kts 96°
2026-05-07 02:43 46.01817 -103.97719 36897 ft 485 kts 96°
2026-05-07 02:44 46.00132 -103.88355 36902 ft 486 kts 96°
2026-05-07 02:44 45.98442 -103.79011 36906 ft 484 kts 96°
2026-05-07 02:45 45.96744 -103.69668 36899 ft 485 kts 96°
2026-05-07 02:45 45.95039 -103.60331 36899 ft 485 kts 97°
2026-05-07 02:46 45.93324 -103.51000 36902 ft 485 kts 96°
2026-05-07 02:46 45.91602 -103.41669 36895 ft 485 kts 97°
2026-05-07 02:47 45.89867 -103.32315 36897 ft 486 kts 97°
2026-05-07 02:47 45.88128 -103.22988 36898 ft 486 kts 97°
2026-05-07 02:48 45.86381 -103.13662 36897 ft 486 kts 97°
2026-05-07 02:48 45.84625 -103.04335 36896 ft 487 kts 97°
2026-05-07 02:49 45.82859 -102.95003 36900 ft 486 kts 97°
2026-05-07 02:49 45.81097 -102.85739 36896 ft 486 kts 97°
2026-05-07 02:50 45.79356 -102.76427 36897 ft 485 kts 97°
2026-05-07 02:50 45.77620 -102.67133 36900 ft 485 kts 97°
2026-05-07 02:51 45.75875 -102.57847 36900 ft 485 kts 98°
2026-05-07 02:51 45.74118 -102.48560 36901 ft 485 kts 97°
2026-05-07 02:52 45.72354 -102.39279 36906 ft 485 kts 97°
2026-05-07 02:52 45.70583 -102.30000 36917 ft 486 kts 98°
2026-05-07 02:53 45.68799 -102.20704 36910 ft 487 kts 99°
2026-05-07 02:53 45.67008 -102.11424 36910 ft 486 kts 99°
2026-05-07 02:54 45.65212 -102.02151 36911 ft 486 kts 99°
2026-05-07 02:54 45.63408 -101.92899 36917 ft 485 kts 99°
2026-05-07 02:55 45.61601 -101.83659 36915 ft 485 kts 99°
2026-05-07 02:55 45.59787 -101.74435 36915 ft 486 kts 99°
2026-05-07 02:56 45.57961 -101.65187 36908 ft 486 kts 99°
2026-05-07 02:56 45.56127 -101.55947 36919 ft 486 kts 99°
2026-05-07 02:57 45.54284 -101.46703 36921 ft 487 kts 99°
2026-05-07 02:57 45.53353 -101.42047 37031 ft 487 kts 99°
2026-05-07 02:57 45.52432 -101.37466 36973 ft 486 kts 99°
2026-05-07 02:58 45.50579 -101.28259 36936 ft 486 kts 100°
2026-05-07 02:58 45.48718 -101.19052 36925 ft 486 kts 100°
2026-05-07 02:59 45.46846 -101.09839 36922 ft 486 kts 100°
2026-05-07 02:59 45.44968 -101.00640 36918 ft 486 kts 100°
2026-05-07 03:00 45.43083 -100.91444 36915 ft 487 kts 100°
2026-05-07 03:00 45.41186 -100.82229 36916 ft 488 kts 100°
2026-05-07 03:01 45.39280 -100.73013 36912 ft 487 kts 100°
2026-05-07 03:01 45.37367 -100.63808 36908 ft 488 kts 101°
2026-05-07 03:02 45.35444 -100.54597 36915 ft 488 kts 101°
2026-05-07 03:02 45.33514 -100.45397 36908 ft 488 kts 101°
2026-05-07 03:03 45.31573 -100.36186 36928 ft 489 kts 101°
2026-05-07 03:03 45.29666 -100.26966 36923 ft 488 kts 99°
2026-05-07 03:04 45.28051 -100.17652 36932 ft 488 kts 98°
2026-05-07 03:04 45.26456 -100.08335 36930 ft 488 kts 98°
2026-05-07 03:05 45.24848 -99.99017 36933 ft 488 kts 99°
2026-05-07 03:05 45.23231 -99.89715 36939 ft 487 kts 99°
2026-05-07 03:06 45.21605 -99.80423 36927 ft 488 kts 99°
2026-05-07 03:06 45.19973 -99.71139 36940 ft 488 kts 99°
2026-05-07 03:07 45.18332 -99.61847 36931 ft 488 kts 99°
2026-05-07 03:07 45.16706 -99.52709 36941 ft 487 kts 99°
2026-05-07 03:08 45.15052 -99.43452 36944 ft 487 kts 99°
2026-05-07 03:08 45.13390 -99.34177 36943 ft 488 kts 100°
2026-05-07 03:09 45.11716 -99.24905 36953 ft 488 kts 100°
2026-05-07 03:09 45.10038 -99.15636 36951 ft 489 kts 100°
2026-05-07 03:10 45.08347 -99.06372 36952 ft 487 kts 100°
2026-05-07 03:10 45.06655 -98.97127 36959 ft 487 kts 100°
2026-05-07 03:11 45.04955 -98.87892 36955 ft 487 kts 101°
2026-05-07 03:11 45.03243 -98.78651 36964 ft 488 kts 101°
2026-05-07 03:12 45.01526 -98.69412 36960 ft 488 kts 101°
2026-05-07 03:12 44.99804 -98.60197 36970 ft 487 kts 101°
2026-05-07 03:13 44.98072 -98.50973 36979 ft 488 kts 101°
2026-05-07 03:13 44.96331 -98.41732 36969 ft 489 kts 101°
2026-05-07 03:14 44.94575 -98.32487 36979 ft 489 kts 102°
2026-05-07 03:15 44.91939 -98.18660 36966 ft 489 kts 102°
2026-05-07 03:15 44.90172 -98.09451 36974 ft 488 kts 102°
2026-05-07 03:16 44.88394 -98.00236 36968 ft 488 kts 102°
2026-05-07 03:16 44.86612 -97.91032 36983 ft 489 kts 102°
2026-05-07 03:17 44.84823 -97.81838 36985 ft 488 kts 102°
2026-05-07 03:17 44.83025 -97.72641 36970 ft 489 kts 102°
2026-05-07 03:18 44.81216 -97.63438 36964 ft 489 kts 102°
2026-05-07 03:18 44.79402 -97.54248 36972 ft 490 kts 102°
2026-05-07 03:19 44.77579 -97.45057 36970 ft 489 kts 103°
2026-05-07 03:19 44.75750 -97.35888 36975 ft 488 kts 103°
2026-05-07 03:20 44.73931 -97.26791 36971 ft 489 kts 104°
2026-05-07 03:20 44.72089 -97.17626 36968 ft 489 kts 104°
2026-05-07 03:21 44.70234 -97.08463 36969 ft 489 kts 104°
2026-05-07 03:21 44.68378 -96.99320 36964 ft 488 kts 104°
2026-05-07 03:22 44.66520 -96.90195 36971 ft 488 kts 104°
2026-05-07 03:22 44.64653 -96.81074 36966 ft 489 kts 104°
2026-05-07 03:23 44.62775 -96.71956 36968 ft 488 kts 104°
2026-05-07 03:23 44.60891 -96.62838 36969 ft 489 kts 104°
2026-05-07 03:24 44.58998 -96.53723 36969 ft 488 kts 104°
2026-05-07 03:24 44.57098 -96.44611 36974 ft 489 kts 104°
2026-05-07 03:25 44.55191 -96.35500 36980 ft 489 kts 104°
2026-05-07 03:25 44.53273 -96.26379 36982 ft 490 kts 105°
2026-05-07 03:26 44.51347 -96.17262 36987 ft 490 kts 105°
2026-05-07 03:26 44.49834 -96.08015 36981 ft 489 kts 98°
2026-05-07 03:27 44.49124 -95.98641 36982 ft 487 kts 91°
2026-05-07 03:27 44.48773 -95.89209 36986 ft 487 kts 91°
2026-05-07 03:28 44.48412 -95.79778 36987 ft 487 kts 91°
2026-05-07 03:28 44.48028 -95.70345 36990 ft 487 kts 91°
2026-05-07 03:29 44.47630 -95.60918 36964 ft 485 kts 91°
2026-05-07 03:29 44.47430 -95.56264 36556 ft 486 kts 91°
2026-05-07 03:29 44.47224 -95.51489 35700 ft 495 kts 91°
2026-05-07 03:29 44.47015 -95.46717 34972 ft 499 kts 91°
2026-05-07 03:30 44.46802 -95.41860 34392 ft 498 kts 91°
2026-05-07 03:30 44.46589 -95.37086 33830 ft 497 kts 91°
2026-05-07 03:30 44.46372 -95.32241 33279 ft 497 kts 92°
2026-05-07 03:30 44.46155 -95.27475 32760 ft 497 kts 92°
2026-05-07 03:31 44.46041 -95.22638 32241 ft 496 kts 87°
2026-05-07 03:31 44.46297 -95.17901 31786 ft 493 kts 80°
2026-05-07 03:31 44.46934 -95.13264 31324 ft 489 kts 73°
2026-05-07 03:31 44.47902 -95.08720 30931 ft 484 kts 70°
2026-05-07 03:32 44.48940 -95.04319 30536 ft 479 kts 69°
2026-05-07 03:32 44.49995 -94.99916 30064 ft 475 kts 69°
2026-05-07 03:32 44.51024 -94.95592 29567 ft 471 kts 69°
2026-05-07 03:32 44.52048 -94.91241 29075 ft 467 kts 69°
2026-05-07 03:33 44.53056 -94.86919 28536 ft 464 kts 69°
2026-05-07 03:33 44.54037 -94.82693 27991 ft 460 kts 69°
2026-05-07 03:33 44.55006 -94.78494 27455 ft 456 kts 70°
2026-05-07 03:33 44.55978 -94.74267 26898 ft 452 kts 70°
2026-05-07 03:34 44.56927 -94.70134 26360 ft 449 kts 70°
2026-05-07 03:34 44.57879 -94.65977 25821 ft 445 kts 70°
2026-05-07 03:34 44.58808 -94.61911 25273 ft 441 kts 70°
2026-05-07 03:34 44.59744 -94.57811 24713 ft 438 kts 70°
2026-05-07 03:35 44.60656 -94.53804 24165 ft 434 kts 69°
2026-05-07 03:35 44.61574 -94.49764 23607 ft 431 kts 69°
2026-05-07 03:35 44.62473 -94.45797 23058 ft 427 kts 69°
2026-05-07 03:35 44.63366 -94.41861 22514 ft 424 kts 69°
2026-05-07 03:36 44.64248 -94.37958 21983 ft 421 kts 69°
2026-05-07 03:36 44.65133 -94.34037 21463 ft 418 kts 70°
2026-05-07 03:36 44.66000 -94.30190 20945 ft 415 kts 70°
2026-05-07 03:36 44.66866 -94.26333 20432 ft 412 kts 70°
2026-05-07 03:37 44.67713 -94.22560 19952 ft 408 kts 70°
2026-05-07 03:37 44.68558 -94.18807 19462 ft 405 kts 70°
2026-05-07 03:37 44.69411 -94.15016 18957 ft 402 kts 70°
2026-05-07 03:37 44.70244 -94.11313 18476 ft 399 kts 70°
2026-05-07 03:38 44.71072 -94.07628 18016 ft 396 kts 70°
2026-05-07 03:38 44.71898 -94.03953 17558 ft 393 kts 70°
2026-05-07 03:38 44.72717 -94.00294 17092 ft 389 kts 70°
2026-05-07 03:38 44.73516 -93.96716 16631 ft 387 kts 70°
2026-05-07 03:39 44.74317 -93.93124 16175 ft 383 kts 69°
2026-05-07 03:39 44.75111 -93.89555 15717 ft 380 kts 69°
2026-05-07 03:39 44.75899 -93.86021 15268 ft 377 kts 69°
2026-05-07 03:39 44.76676 -93.82551 14840 ft 374 kts 69°
2026-05-07 03:40 44.77460 -93.79036 14422 ft 369 kts 69°
2026-05-07 03:40 44.78213 -93.75650 14133 ft 362 kts 69°
2026-05-07 03:40 44.78967 -93.72253 13844 ft 355 kts 69°
2026-05-07 03:40 44.79697 -93.68961 13521 ft 351 kts 69°
2026-05-07 03:41 44.80420 -93.65698 13190 ft 346 kts 69°
2026-05-07 03:41 44.81125 -93.62503 12873 ft 341 kts 69°
2026-05-07 03:41 44.81829 -93.59315 12559 ft 337 kts 69°
2026-05-07 03:41 44.82520 -93.56179 12255 ft 332 kts 69°
2026-05-07 03:42 44.83199 -93.53090 11957 ft 327 kts 69°
2026-05-07 03:42 44.83865 -93.50056 11665 ft 323 kts 69°
2026-05-07 03:42 44.84526 -93.47041 11378 ft 319 kts 68°
2026-05-07 03:42 44.85090 -93.44030 11080 ft 318 kts 80°
2026-05-07 03:43 44.84814 -93.40979 10727 ft 319 kts 111°
2026-05-07 03:43 44.83723 -93.38248 10445 ft 315 kts 125°
2026-05-07 03:43 44.82465 -93.35752 10099 ft 314 kts 126°
2026-05-07 03:43 44.81237 -93.33270 9829 ft 310 kts 125°
2026-05-07 03:44 44.80047 -93.30714 9586 ft 305 kts 123°
2026-05-07 03:44 44.78944 -93.28236 9384 ft 299 kts 123°
2026-05-07 03:44 44.77852 -93.25736 9167 ft 293 kts 122°
2026-05-07 03:44 44.76807 -93.23332 8938 ft 288 kts 122°
2026-05-07 03:45 44.75756 -93.20914 8698 ft 283 kts 122°
2026-05-07 03:45 44.74747 -93.18574 8455 ft 279 kts 122°
2026-05-07 03:45 44.73763 -93.16256 8212 ft 275 kts 122°
2026-05-07 03:45 44.72781 -93.13937 7971 ft 271 kts 122°
2026-05-07 03:46 44.71831 -93.11697 7738 ft 268 kts 122°
2026-05-07 03:46 44.70884 -93.09467 7500 ft 264 kts 122°
2026-05-07 03:46 44.69937 -93.07240 7263 ft 260 kts 122°
2026-05-07 03:46 44.69017 -93.05080 7006 ft 257 kts 122°
2026-05-07 03:47 44.68111 -93.02958 6668 ft 256 kts 122°
2026-05-07 03:47 44.67187 -93.00797 6173 ft 260 kts 122°
2026-05-07 03:47 44.66265 -92.98641 5959 ft 256 kts 122°
2026-05-07 03:47 44.65356 -92.96510 5751 ft 253 kts 120°
2026-05-07 03:48 44.64785 -92.94190 5517 ft 248 kts 91°
2026-05-07 03:48 44.65094 -92.91921 5363 ft 235 kts 60°
2026-05-07 03:48 44.65993 -92.90074 5206 ft 222 kts 34°
2026-05-07 03:48 44.67357 -92.89324 5038 ft 206 kts 356°
2026-05-07 03:49 44.68734 -92.89769 4899 ft 207 kts 327°
2026-05-07 03:49 44.69899 -92.90972 4765 ft 207 kts 320°
2026-05-07 03:49 44.71047 -92.92237 4558 ft 208 kts 320°
2026-05-07 03:49 44.72195 -92.93478 4297 ft 208 kts 321°
2026-05-07 03:50 44.73347 -92.94706 4020 ft 209 kts 322°
2026-05-07 03:50 44.74519 -92.95946 3787 ft 207 kts 322°
2026-05-07 03:50 44.75679 -92.97169 3770 ft 208 kts 322°
2026-05-07 03:50 44.76835 -92.98386 3736 ft 208 kts 322°
2026-05-07 03:51 44.77955 -92.99622 3659 ft 201 kts 317°
2026-05-07 03:51 44.78888 -93.01012 3667 ft 186 kts 308°
2026-05-07 03:51 44.79630 -93.02425 3633 ft 178 kts 305°
2026-05-07 03:51 44.80317 -93.03865 3514 ft 177 kts 303°
2026-05-07 03:52 44.80979 -93.05347 3278 ft 178 kts 302°
2026-05-07 03:52 44.81614 -93.06814 3036 ft 178 kts 301°
2026-05-07 03:52 44.82252 -93.08301 2791 ft 174 kts 301°
2026-05-07 03:52 44.82863 -93.09721 2546 ft 166 kts 301°
2026-05-07 03:53 44.83454 -93.11096 2360 ft 162 kts 301°
2026-05-07 03:53 44.84023 -93.12415 2116 ft 151 kts 301°
2026-05-07 03:53 44.84547 -93.13629 1897 ft 140 kts 301°
2026-05-07 03:53 44.85043 -93.14777 1684 ft 137 kts 301°
2026-05-07 03:54 44.85533 -93.15926 1517 ft 136 kts 301°
2026-05-07 03:54 44.86025 -93.17059 1352 ft 136 kts 301°
2026-05-07 03:54 44.86524 -93.18198 1152 ft 135 kts 301°
2026-05-07 03:54 44.87013 -93.19338 973 ft 135 kts 301°
2026-05-07 03:55 44.87499 -93.20459 827 ft 132 kts 301°
2026-05-07 03:55 44.87922 -93.21431 824 ft 93 kts 301°
2026-05-07 03:55 44.88169 -93.22003 829 ft 44 kts 301°
2026-05-07 03:55 44.88289 -93.22278 832 ft 29 kts 301°
2026-05-07 03:56 44.88367 -93.22432 833 ft 11 kts 335°
2026-05-07 03:56 44.88437 -93.22417 833 ft 8 kts 32°
2026-05-07 03:56 44.88442 -93.22413 833 ft 0 kts 33°
2026-05-07 03:57 44.88445 -93.22410 833 ft 1 kts 34°
2026-05-07 03:57 44.88454 -93.22401 833 ft 2 kts 34°
2026-05-07 03:57 44.88469 -93.22385 833 ft 2 kts 42°
2026-05-07 03:58 44.88474 -93.22377 833 ft 3 kts 43°
2026-05-07 03:58 44.88497 -93.22345 833 ft 5 kts 44°
2026-05-07 03:58 44.88533 -93.22298 833 ft 8 kts 45°
2026-05-07 03:58 44.88578 -93.22233 833 ft 10 kts 46°
2026-05-07 03:59 44.88635 -93.22151 833 ft 12 kts 45°
2026-05-07 03:59 44.88701 -93.22057 832 ft 14 kts 45°
2026-05-07 03:59 44.88728 -93.22018 832 ft 1 kts 46°
2026-05-07 03:59 44.88744 -93.21996 832 ft 6 kts 45°
2026-05-07 04:00 44.88803 -93.21915 832 ft 13 kts 44°
2026-05-07 04:00 44.88872 -93.21820 832 ft 15 kts 45°
2026-05-07 04:00 44.88904 -93.21717 831 ft 10 kts 115°
2026-05-07 04:00 44.88846 -93.21631 830 ft 14 kts 136°
2026-05-07 04:01 44.88795 -93.21500 829 ft 16 kts 111°
2026-05-07 04:01 44.88752 -93.21345 828 ft 17 kts 111°
2026-05-07 04:01 44.88708 -93.21187 826 ft 17 kts 111°
2026-05-07 04:01 44.88649 -93.21029 824 ft 18 kts 122°
2026-05-07 04:02 44.88578 -93.20872 822 ft 19 kts 121°
2026-05-07 04:02 44.88509 -93.20708 820 ft 20 kts 121°
2026-05-07 04:02 44.88433 -93.20530 818 ft 21 kts 121°
2026-05-07 04:02 44.88355 -93.20351 816 ft 21 kts 122°
2026-05-07 04:03 44.88277 -93.20174 815 ft 21 kts 121°
2026-05-07 04:03 44.88203 -93.19991 813 ft 21 kts 117°
2026-05-07 04:03 44.88187 -93.19947 813 ft 2 kts 118°
2026-05-07 04:03 44.88171 -93.19907 813 ft 6 kts 119°
2026-05-07 04:04 44.88148 -93.19885 812 ft 4 kts 186°
2026-05-07 04:04 44.88136 -93.19891 812 ft 0 kts 202°
2026-05-07 04:04 44.88131 -93.19894 812 ft 1 kts 205°
2026-05-07 04:04 44.88123 -93.19900 812 ft 2 kts 211°
2026-05-07 04:05 44.88117 -93.19904 812 ft 0 kts 212°
2026-05-07 04:05 44.88112 -93.19910 812 ft 0 kts 213°